[[{"header":{"parameterUnit":"m.s-1","parameterCategory":1,"la1":30.2991,"la2":30.254,"lo1":-89.0895,"lo2":-89.0444,"dy":0.0017,"dx":0.0017,"nx":28,"ny":28,"refTime":"2023-08-22T09:00:00:Z","depth":0,"parameterNumber":2,"parameterNumberName":"U-component_of_WINDS"},"data":[0,0,0,0,0,0,0,0,0,0,0,0,0,0,0,0,0,0,0,0,0,0,0,0,0,0,0,0,0,0,0,0,0,0,0,0,0,0,0,0,0,0,0,0,0,0,0,0,0,0,0,0,0,0,0,0,0,0,-2.2753,-2.2753,0,-2.2726,-2.2726,-2.2726,-2.259,-2.2587,-2.2584,-2.2581,-2.2558,-2.256,-2.2562,0,0,0,0,0,0,0,0,0,0,0,0,0,-2.2691,-2.2693,-2.2753,-2.2753,-2.2753,-2.2726,-2.2726,-2.2726,-2.2591,-2.2587,-2.2583,-2.2579,-2.2557,-2.256,-2.2563,0,0,0,0,0,0,0,0,0,0,0,0,0,-2.2697,-2.2693,-2.2753,-2.2682,-2.2675,-2.2726,-2.2726,-2.2725,-2.2592,-2.2587,-2.2582,-2.2577,-2.2556,-2.2559,-2.2563,-2.2682,0,0,-2.2574,-2.2575,0,0,0,0,0,0,0,0,-2.2696,-2.2699,-2.2693,-2.2687,-2.268,-2.2656,-2.2695,-2.2711,-2.2593,-2.2624,-2.2581,-2.2575,-2.2595,-2.2595,-2.2601,-2.2681,-2.268,-2.2574,-2.2576,-2.2578,-2.2579,0,0,0,0,0,0,0,-2.2696,-2.2699,-2.2743,-2.2693,-2.2685,-2.2652,-2.2648,-2.2698,-2.2637,-2.2621,-2.2611,-2.2609,-2.259,-2.2597,-2.2599,-2.2679,-2.2574,-2.2577,-2.258,-2.2581,-2.2855,-2.286,0,0,0,0,0,0,-2.2705,-2.27,-2.2743,-2.2742,-2.2676,-2.2657,-2.2652,-2.2669,-2.2636,-2.2626,-2.2613,-2.2603,-2.2594,-2.2595,-2.2598,-2.2735,-2.2578,-2.2581,-2.2583,-2.285,-2.2856,-2.2862,0,0,0,0,0,0,-2.2705,-2.2711,-2.2745,-2.2718,-2.272,-2.2664,-2.2683,-2.2671,-2.2678,-2.263,-2.2619,-2.2632,-2.259,-2.2593,-2.2661,-2.2732,-2.2583,-2.2586,-2.2844,-2.2852,-2.2859,-2.301,0,0,0,0,0,0,-2.2703,-2.2711,-2.2755,-2.272,-2.2722,-2.2809,-2.2688,-2.2674,-2.2684,-2.267,-2.2645,-2.2636,-2.2586,-2.2657,-2.2665,-2.2734,-2.2589,-2.2837,-2.2847,-2.2856,-2.2999,-2.3022,-2.3042,0,0,0,0,0,-2.2702,-2.28,-2.2758,-2.2764,-2.2776,-2.2813,-2.2814,-2.2754,-2.269,-2.2735,-2.2703,-2.2637,-2.2722,-2.2665,-2.2673,-2.2745,-2.2833,-2.2845,-2.2856,-2.2989,-2.3017,-2.3041,0,0,0,0,0,0,-2.2847,-2.2794,-2.2747,-2.2837,-2.283,-2.279,-2.2844,-2.2786,-2.2799,-2.2786,-2.2712,-2.2707,-2.2787,-2.2772,-2.2709,-2.2857,-2.2766,-2.278,-2.2865,-2.2891,-2.2913,-2.2915,-2.2592,0,0,0,0,0,-2.2889,-2.2923,-2.2875,-2.2959,-2.2957,-2.2902,-2.2916,-2.287,-2.286,-2.2857,-2.2831,-2.2826,-2.2851,-2.287,-2.2891,-2.2995,-2.2988,-2.3048,-2.3069,-2.3088,-2.3101,-2.3155,-2.3181,-2.29,-2.29,-2.2899,0,0,-2.2978,-2.2953,-2.2979,-2.2987,-2.2977,-2.3014,-2.29,-2.2945,-2.2972,-2.2864,-2.2927,-2.2908,-2.2897,-2.2984,-2.3021,-2.2974,-2.3177,-2.3102,-2.3117,-2.3121,-2.3169,-2.3196,-2.322,-2.2907,-2.2906,-2.2905,0,0,-2.3158,-2.3142,-2.321,-2.3201,-2.3185,-2.3147,-2.3163,-2.3131,-2.3114,-2.3175,-2.3095,-2.3126,-2.3172,-2.3167,-2.3171,-2.3347,-2.3286,-2.3356,-2.347,-2.3524,-2.3546,-2.3565,-2.3629,-2.3653,-2.3369,-2.3369,-2.337,0,-2.327,-2.3322,-2.3252,-2.3301,-2.3308,-2.3209,-2.3278,-2.3273,-2.3266,-2.3273,-2.322,-2.3275,-2.326,-2.3345,-2.3387,-2.3393,-2.3411,-2.336,-2.3548,-2.3567,-2.3584,-2.3644,-2.3668,-2.3378,-2.3377,-2.3376,-2.3375,0,-2.3461,-2.3498,-2.3554,-2.3548,-2.356,-2.3619,-2.356,-2.3581,-2.3533,-2.3501,-2.3565,-2.3544,-2.3558,-2.3574,-2.3529,-2.3653,-2.3624,-2.3561,-2.3468,-2.362,-2.3676,-2.3698,-2.339,-2.3387,-2.3385,-2.3383,0,0,-2.3735,-2.3687,-2.3709,-2.3705,-2.3679,-2.3707,-2.3761,-2.3773,-2.3793,-2.3791,-2.3835,-2.3875,-2.3816,-2.382,-2.3773,-2.382,-2.3961,-2.375,-2.3749,-2.3791,-2.4097,-2.4146,-2.4173,-2.3919,-2.3923,-2.3927,-2.4098,0,-2.3908,-2.3996,-2.3935,-2.4034,-2.4067,-2.3973,-2.402,-2.4011,-2.3981,-2.4006,-2.3974,-2.4004,-2.3923,-2.3924,-2.3966,-2.3935,-2.4022,-2.3922,-2.3962,-2.3964,-2.3969,-2.4202,-2.4254,-2.4417,-2.4119,-2.4122,-2.4125,0,-2.4122,-2.4127,-2.423,-2.4196,-2.4208,-2.4251,-2.4257,-2.4281,-2.4268,-2.4243,-2.4247,-2.4188,-2.4239,-2.4146,-2.4217,-2.415,-2.4162,-2.415,-2.4154,-2.4157,-2.4055,-2.4213,-2.4467,-2.4493,-2.4158,-2.4155,-2.4153,0,-2.4313,-2.4346,-2.4411,-2.4409,-2.4372,-2.4404,-2.439,-2.4371,-2.4383,-2.4388,-2.4395,-2.4407,-2.4414,-2.4425,-2.4371,-2.4308,-2.4449,-2.4352,-2.4432,-2.4433,-2.4468,-2.4467,-2.4729,-2.4473,-2.4473,-2.4472,-2.4472,0,-2.4514,-2.4581,-2.4496,-2.4536,-2.4608,-2.4536,-2.461,-2.4586,-2.457,-2.4605,-2.4524,-2.4559,-2.4484,-2.4511,-2.4469,-2.4534,-2.4538,-2.452,-2.4509,-2.4529,-2.4531,-2.4538,-2.4526,-2.4479,-2.4477,-2.4476,-2.4475,0,-2.4741,-2.4686,-2.4751,-2.4709,-2.4699,-2.4755,-2.4719,-2.4755,-2.4719,-2.4764,-2.477,-2.4715,-2.4743,-2.4689,-2.471,-2.4681,-2.4774,-2.4744,-2.4778,-2.477,-2.4854,-2.4847,-2.5131,-2.5165,-2.4886,-2.4889,-2.4891,0,-2.4874,-2.4922,-2.4884,-2.49,-2.489,-2.4918,-2.4928,-2.4859,-2.4873,-2.486,-2.4898,-2.4919,-2.4932,-2.4981,-2.4944,-2.4959,-2.493,-2.5028,-2.4932,-2.495,-2.4933,-2.4932,-2.4937,-2.5049,-2.5052,-2.5055,-2.5057,0,-2.5116,-2.5085,-2.5102,-2.5109,-2.5123,-2.5126,-2.5123,-2.5142,-2.5067,-2.5088,-2.5114,-2.5124,-2.5144,-2.5166,-2.5173,-2.5159,-2.5098,-2.5087,-2.5107,-2.5129,-2.5148,-2.514,-2.4834,-2.5082,-2.5079,-2.5078,-2.5076,-2.5075,-2.53,-2.5339,-2.5317,-2.5338,-2.5328,-2.5327,-2.5358,-2.5325,-2.5345,-2.5355,-2.5313,-2.5349,-2.5333,-2.5335,-2.5328,-2.5356,-2.5313,-2.5341,-2.5348,-2.5357,-2.5371,-2.5141,-2.5357,-2.5356,-2.5356,-2.5355,-2.5354,0,-2.5539,-2.5519,-2.5539,-2.5536,-2.5553,-2.5489,-2.5483,-2.5502,-2.5534,-2.5523,-2.5537,-2.5567,-2.5587,-2.5551,-2.5565,-2.5595,-2.5567,-2.5601,-2.56,-2.5598,-2.5408,-2.5391,-2.5624,-2.5624,-2.5624,-2.5624,-2.5624,-2.5623,-2.5665,-2.5727,-2.5694,-2.575,-2.573,-2.5763,-2.5765,-2.5764,-2.5755,-2.5791,-2.5807,-2.5782,-2.5761,-2.5773,-2.579,-2.5778,-2.5788,-2.5833,-2.5813,-2.5637,-2.5611,-2.5586,-2.5569,-2.5836,-2.5836,-2.5999,-2.6001,-2.6002]},{"header":{"parameterUnit":"m.s-1","parameterCategory":1,"la1":30.2991,"la2":30.254,"lo1":-89.0895,"lo2":-89.0444,"dy":0.0017,"dx":0.0017,"nx":28,"ny":28,"refTime":"2023-08-22T09:00:00:Z","depth":0,"parameterNumber":3,"parameterNumberName":"V-component_of_WINDS"},"data":[0,0,0,0,0,0,0,0,0,0,0,0,0,0,0,0,0,0,0,0,0,0,0,0,0,0,0,0,0,0,0,0,0,0,0,0,0,0,0,0,0,0,0,0,0,0,0,0,0,0,0,0,0,0,0,0,0,0,-1.8567,-1.8568,0,-1.8606,-1.8606,-1.8607,-1.8625,-1.8625,-1.8625,-1.8625,-1.8662,-1.8663,-1.8664,0,0,0,0,0,0,0,0,0,0,0,0,0,-1.8505,-1.8506,-1.8567,-1.8568,-1.8568,-1.8606,-1.8606,-1.8607,-1.8625,-1.8625,-1.8625,-1.8625,-1.8662,-1.8663,-1.8664,0,0,0,0,0,0,0,0,0,0,0,0,0,-1.8537,-1.8506,-1.8567,-1.8582,-1.8584,-1.8606,-1.8606,-1.8607,-1.8625,-1.8625,-1.8625,-1.8625,-1.8662,-1.8663,-1.8664,-1.8674,0,0,-1.8669,-1.867,0,0,0,0,0,0,0,0,-1.8535,-1.8539,-1.8579,-1.8581,-1.8583,-1.8611,-1.8598,-1.8629,-1.8625,-1.8609,-1.8625,-1.8625,-1.8645,-1.8648,-1.8655,-1.8675,-1.8677,-1.8669,-1.867,-1.8671,-1.8671,0,0,0,0,0,0,0,-1.8533,-1.8537,-1.8582,-1.858,-1.8582,-1.8585,-1.859,-1.8604,-1.8627,-1.8611,-1.8612,-1.8617,-1.8646,-1.8654,-1.8656,-1.8678,-1.8669,-1.867,-1.8671,-1.8672,-1.8706,-1.8706,0,0,0,0,0,0,-1.8528,-1.8535,-1.8581,-1.8584,-1.8558,-1.8586,-1.8591,-1.8602,-1.8627,-1.863,-1.8617,-1.8617,-1.8651,-1.8654,-1.8657,-1.8669,-1.8671,-1.8672,-1.8673,-1.8706,-1.8706,-1.8706,0,0,0,0,0,0,-1.8527,-1.8532,-1.858,-1.856,-1.8566,-1.8588,-1.8599,-1.8603,-1.861,-1.8631,-1.8635,-1.8621,-1.8651,-1.8655,-1.8669,-1.8671,-1.8673,-1.8674,-1.8706,-1.8706,-1.8706,-1.8693,0,0,0,0,0,0,-1.8525,-1.8532,-1.8537,-1.856,-1.8567,-1.8592,-1.8599,-1.8603,-1.8613,-1.8614,-1.8636,-1.8639,-1.8651,-1.8667,-1.8671,-1.8673,-1.8675,-1.8706,-1.8706,-1.8706,-1.8693,-1.8693,-1.8692,0,0,0,0,0,-1.8523,-1.8531,-1.8537,-1.8542,-1.8574,-1.8592,-1.8596,-1.8611,-1.8613,-1.8617,-1.863,-1.8639,-1.867,-1.8668,-1.8673,-1.8675,-1.8706,-1.8706,-1.8706,-1.8694,-1.8693,-1.8692,0,0,0,0,0,0,-1.8507,-1.8535,-1.8541,-1.8557,-1.8572,-1.8595,-1.8601,-1.861,-1.8624,-1.8624,-1.8641,-1.8645,-1.8658,-1.8668,-1.8666,-1.8684,-1.8688,-1.8689,-1.8678,-1.8677,-1.8676,-1.8673,-1.8676,0,0,0,0,0,-1.8506,-1.8519,-1.8542,-1.8554,-1.8561,-1.858,-1.8588,-1.8598,-1.8614,-1.862,-1.8635,-1.8649,-1.8662,-1.867,-1.8683,-1.8695,-1.8699,-1.8698,-1.8697,-1.8697,-1.8697,-1.8703,-1.8703,-1.8706,-1.8706,-1.8706,0,0,-1.8502,-1.8519,-1.8527,-1.8551,-1.8564,-1.8577,-1.8585,-1.8598,-1.8607,-1.8622,-1.8636,-1.8647,-1.8664,-1.8676,-1.8683,-1.8685,-1.8697,-1.8697,-1.8696,-1.8697,-1.8703,-1.8703,-1.8702,-1.8706,-1.8706,-1.8706,0,0,-1.8503,-1.8518,-1.8529,-1.8541,-1.856,-1.8572,-1.8575,-1.8596,-1.8604,-1.8619,-1.863,-1.864,-1.8662,-1.8673,-1.8682,-1.8685,-1.8692,-1.8688,-1.8684,-1.869,-1.8689,-1.8689,-1.8689,-1.8689,-1.8689,-1.8689,-1.8689,0,-1.8496,-1.8517,-1.8533,-1.8545,-1.8555,-1.8569,-1.858,-1.8591,-1.8613,-1.8619,-1.8621,-1.8649,-1.8661,-1.8676,-1.8676,-1.8683,-1.8685,-1.8686,-1.8688,-1.8688,-1.8688,-1.8689,-1.8689,-1.8688,-1.8688,-1.8688,-1.8688,0,-1.8507,-1.8521,-1.8527,-1.8549,-1.8559,-1.8571,-1.8587,-1.8595,-1.8604,-1.8615,-1.8629,-1.8644,-1.866,-1.8664,-1.8672,-1.8679,-1.868,-1.8685,-1.869,-1.8687,-1.8688,-1.8688,-1.8687,-1.8687,-1.8688,-1.8688,0,0,-1.85,-1.853,-1.8532,-1.8541,-1.8562,-1.8573,-1.8584,-1.86,-1.8606,-1.862,-1.8629,-1.8647,-1.8651,-1.8661,-1.867,-1.8675,-1.8675,-1.8679,-1.868,-1.8677,-1.8682,-1.8678,-1.8678,-1.868,-1.868,-1.868,-1.8681,0,-1.8503,-1.8525,-1.8539,-1.8555,-1.8567,-1.8579,-1.8589,-1.8602,-1.8612,-1.8623,-1.8634,-1.8646,-1.8651,-1.8657,-1.8662,-1.8674,-1.8676,-1.8674,-1.8687,-1.8687,-1.8683,-1.8679,-1.8675,-1.8675,-1.8681,-1.8681,-1.8681,0,-1.8511,-1.8525,-1.8542,-1.8561,-1.8566,-1.8575,-1.8589,-1.86,-1.8614,-1.8621,-1.8631,-1.8641,-1.8651,-1.8654,-1.8669,-1.8667,-1.8673,-1.8679,-1.8679,-1.8681,-1.8684,-1.868,-1.8675,-1.8675,-1.8682,-1.8682,-1.8682,0,-1.8503,-1.8526,-1.8539,-1.8546,-1.8569,-1.8574,-1.8584,-1.8598,-1.8607,-1.8619,-1.8624,-1.8638,-1.8645,-1.8654,-1.8667,-1.8668,-1.8679,-1.8683,-1.8684,-1.8684,-1.8686,-1.8686,-1.8682,-1.869,-1.869,-1.869,-1.869,0,-1.8505,-1.8515,-1.8536,-1.8543,-1.8554,-1.8569,-1.8578,-1.8589,-1.8601,-1.861,-1.8622,-1.863,-1.8645,-1.8655,-1.8664,-1.8673,-1.8677,-1.8682,-1.8684,-1.8681,-1.868,-1.8685,-1.8685,-1.869,-1.869,-1.869,-1.869,0,-1.8498,-1.8513,-1.8528,-1.8547,-1.8552,-1.8559,-1.8575,-1.8583,-1.8593,-1.8604,-1.8608,-1.8624,-1.8635,-1.8648,-1.8664,-1.867,-1.8679,-1.8682,-1.8674,-1.8675,-1.8675,-1.8675,-1.8674,-1.8674,-1.8683,-1.8683,-1.8682,0,-1.8499,-1.8506,-1.8527,-1.8534,-1.8543,-1.8555,-1.8563,-1.8577,-1.8585,-1.8601,-1.8606,-1.8619,-1.863,-1.8647,-1.8659,-1.8671,-1.8675,-1.8674,-1.8677,-1.8672,-1.8674,-1.8673,-1.8673,-1.8673,-1.8673,-1.8673,-1.8672,0,-1.8498,-1.8504,-1.8516,-1.853,-1.854,-1.8552,-1.8564,-1.8569,-1.8585,-1.8593,-1.8605,-1.8613,-1.8629,-1.8641,-1.8654,-1.8662,-1.8669,-1.8671,-1.8672,-1.8669,-1.8663,-1.8665,-1.8671,-1.8671,-1.8671,-1.8672,-1.8672,-1.8672,-1.8494,-1.8501,-1.8516,-1.8529,-1.8539,-1.855,-1.8557,-1.8568,-1.8579,-1.8594,-1.8601,-1.8612,-1.8625,-1.8643,-1.8651,-1.866,-1.8662,-1.8663,-1.8664,-1.8664,-1.8662,-1.8662,-1.8662,-1.8662,-1.8662,-1.8662,-1.8662,0,-1.8493,-1.8503,-1.8515,-1.8531,-1.854,-1.8547,-1.856,-1.8567,-1.8578,-1.8589,-1.8599,-1.8612,-1.8623,-1.8636,-1.8648,-1.8652,-1.8655,-1.8654,-1.8654,-1.8656,-1.866,-1.8658,-1.8651,-1.8651,-1.8651,-1.8651,-1.8651,-1.8651,-1.8494,-1.8505,-1.8513,-1.8529,-1.8539,-1.8551,-1.8558,-1.8567,-1.8576,-1.8591,-1.86,-1.8608,-1.862,-1.8632,-1.8642,-1.8645,-1.8649,-1.8647,-1.8651,-1.8655,-1.8655,-1.8656,-1.8655,-1.8647,-1.8647,-1.8646,-1.8646,-1.8646]}]]